GFSWCAN_sfc_thetae_021.txt.gz
Theta_e
303 303 304 304 304 305 305 305 305 306 306 306 307 307 307 308 308 304 301 305 299 293 294 296 297 293 293 293 287 291 290 291 290 285 288 287 286 288 286 291 291 293 292 293 292 291 288 307 306 298 301 305 310 309
303 303 304 304 304 304 304 304 305 305 305 306 306 307 307 307 308 306 299 305 307 297 295 299 300 301 299 298 294 295 289 291 292 289 289 290 288 290 290 285 296 293 296 291 295 295 305 309 306 308 311 306 309 310
302 303 303 303 303 304 304 304 304 305 305 306 306 307 307 306 307 306 301 302 302 296 295 295 298 302 305 304 303 293 295 297 296 295 292 292 288 293 287 288 291 296 299 296 297 302 302 307 311 312 311 311 312 312
303 303 303 303 303 303 303 304 304 305 305 306 307 307 307 307 306 306 301 303 302 298 289 292 301 299 305 305 303 302 300 301 299 299 294 292 289 296 291 293 292 296 297 296 298 302 302 306 307 311 314 314 314 313
302 302 302 303 303 303 303 303 304 304 305 306 307 307 307 307 305 305 303 304 306 296 289 291 297 300 303 304 303 302 300 298 295 293 292 290 293 294 295 294 292 298 295 294 296 300 299 302 304 311 312 312 312 314
301 302 302 303 303 303 303 303 304 305 306 307 307 307 307 305 305 301 297 307 307 305 294 286 297 298 301 302 301 300 300 297 296 293 292 294 299 293 289 289 296 299 301 300 300 304 303 303 307 307 313 313 314 316
301 302 302 302 303 303 303 304 304 305 306 306 306 306 307 306 303 298 296 302 304 301 295 289 290 297 301 301 299 298 299 297 296 293 291 292 293 295 289 286 294 297 298 300 303 303 300 302 300 304 309 314 315 315
301 301 302 302 302 303 303 304 305 305 306 306 306 306 307 305 303 298 303 306 305 298 298 288 289 292 302 295 293 299 294 296 295 293 294 291 292 292 287 292 295 297 298 299 301 303 301 304 304 304 307 311 312 314
301 301 301 302 302 302 303 304 305 305 305 305 306 306 306 300 300 302 308 307 305 298 291 292 287 285 299 295 296 296 298 290 296 290 291 292 289 286 291 292 294 296 297 299 300 304 303 303 303 303 304 309 308 312
300 301 301 302 302 302 303 304 305 305 305 306 306 303 300 303 308 307 302 298 297 297 295 289 295 286 294 292 292 291 295 291 287 291 296 290 288 294 295 297 299 299 299 299 297 298 301 301 302 302 303 308 309 312
300 301 301 302 302 303 303 305 305 305 307 305 300 300 304 310 305 301 295 294 296 292 295 295 296 293 298 289 288 292 288 289 284 289 290 289 288 293 295 295 297 298 300 300 299 301 304 303 302 302 303 306 307 309
300 300 301 301 302 303 304 304 304 303 303 301 299 303 305 304 299 294 291 294 292 290 296 294 295 297 294 294 289 290 286 288 283 290 288 286 293 295 293 293 294 296 297 301 302 301 303 305 305 304 305 307 308 309
300 300 301 301 302 303 304 303 303 304 305 308 301 300 296 295 287 288 286 289 289 295 296 296 294 297 295 292 288 287 284 284 290 285 285 287 293 293 293 292 295 299 301 301 303 303 303 305 307 306 306 308 310 311
300 300 300 301 302 303 301 301 303 304 304 302 297 287 291 289 291 292 291 293 297 298 298 299 296 295 296 291 291 286 289 289 284 282 284 288 291 293 293 296 297 298 300 301 304 306 302 304 305 307 307 308 309 308
299 300 300 302 301 301 301 302 303 308 306 299 298 287 291 297 297 297 297 297 298 300 298 296 296 295 292 289 290 288 284 283 284 283 286 289 292 296 295 295 297 299 301 301 304 306 306 304 304 305 307 307 308 309
299 300 302 300 300 300 301 303 309 312 306 300 299 294 297 295 294 296 296 296 300 299 299 297 291 290 289 288 285 284 283 282 285 285 291 295 296 298 298 297 298 301 303 304 304 306 307 307 307 307 311 310 310 310
298 297 300 300 299 300 302 303 309 304 300 298 297 300 298 297 296 297 298 297 301 298 293 294 288 286 291 286 284 286 284 286 290 295 298 300 299 300 300 300 299 300 303 306 306 307 307 308 307 306 306 310 312 316
293 296 299 299 299 299 306 308 305 300 295 298 296 297 299 300 298 298 300 300 299 297 296 293 295 288 284 282 285 288 291 297 299 299 300 301 302 302 302 302 301 301 303 304 304 304 305 306 306 305 307 310 313 313
296 297 298 299 298 297 299 303 305 296 297 299 299 299 299 299 301 301 301 302 302 302 298 295 291 289 289 293 293 295 297 298 297 299 301 302 303 303 303 303 303 302 303 303 303 304 305 305 305 305 308 310 309 310
298 298 298 300 301 300 299 300 307 299 295 298 299 296 297 298 300 301 300 301 298 296 294 292 292 294 295 297 299 299 299 300 299 297 297 300 301 303 303 303 303 303 303 304 304 300 305 305 306 306 306 306 309 308
297 300 300 302 301 300 301 299 298 299 299 297 298 297 296 299 298 298 298 300 296 293 292 295 296 298 301 301 302 303 301 301 300 299 298 298 301 301 301 303 304 303 303 303 302 303 302 304 305 307 307 307 308 308
295 300 300 303 299 301 299 302 297 299 297 296 295 297 294 294 295 296 300 296 295 295 296 297 298 298 300 301 301 302 303 302 302 301 299 300 300 299 300 301 302 301 301 302 304 303 303 304 306 307 306 306 305 306
298 300 299 299 295 293 291 301 294 296 292 294 296 293 293 294 296 299 295 297 296 299 299 299 299 301 300 302 303 303 303 301 300 301 301 301 301 301 300 301 302 300 300 302 304 304 304 297 302 305 305 306 306 305
299 295 292 293 294 288 296 293 298 295 294 291 291 290 291 292 295 292 290 293 297 299 298 298 299 297 298 301 299 299 300 302 302 300 301 301 299 300 300 300 301 302 302 303 303 303 304 304 300 304 304 303 304 304
287 286 289 285 292 291 290 290 291 290 289 290 289 289 291 294 289 288 289 293 296 296 297 298 297 296 295 296 300 301 303 300 299 300 301 300 300 301 300 300 300 301 302 301 302 302 302 303 303 303 302 302 302 302
280 286 286 288 289 289 290 286 287 288 289 288 289 292 294 289 286 286 290 294 296 296 297 296 295 295 295 296 296 297 298 301 301 299 300 302 300 298 298 297 297 298 301 301 302 301 301 302 302 302 303 302 295 302
280 283 289 294 293 292 290 292 292 290 287 287 289 288 288 284 285 289 296 298 297 297 297 296 296 294 294 296 298 299 300 300 299 300 302 302 302 302 300 297 296 298 301 301 303 303 301 301 300 301 302 302 303 302
285 287 283 287 289 290 287 287 288 287 289 292 291 286 285 286 287 293 297 300 300 298 297 296 297 295 295 296 298 298 298 299 299 301 302 303 303 302 299 301 301 291 299 298 302 302 302 303 302 302 299 298 298 300
284 288 287 283 285 287 287 286 286 289 293 291 288 287 289 294 296 296 297 298 298 297 295 294 296 297 296 298 299 299 299 296 294 293 293 293 293 296 297 298 299 300 302 299 286 294 298 298 299 299 299 297 295 294
284 288 286 286 285 284 287 290 291 294 295 295 294 293 293 295 297 297 296 296 296 294 295 295 296 298 296 297 296 297 297 296 294 292 289 289 291 295 296 295 296 297 298 298 298 298 290 296 294 296 294 293 291 289
289 289 286 286 284 288 291 295 296 296 295 293 294 291 292 294 296 297 298 298 297 296 296 296 296 297 296 295 294 294 292 294 293 291 290 292 292 292 292 293 295 296 297 297 296 296 295 294 292 291 290 288 288 287
288 287 285 283 286 292 294 292 292 291 292 291 290 292 293 291 290 293 295 297 294 295 291 294 293 293 295 295 294 293 288 288 287 286 286 287 287 289 291 292 293 296 296 295 294 293 292 290 287 287 286 286 285 285
288 289 289 288 288 288 291 291 289 288 289 290 290 291 291 289 287 291 295 295 294 293 292 293 293 294 293 293 292 289 287 286 283 282 282 282 282 282 288 289 293 294 293 292 291 290 288 287 285 284 284 283 283 283

GFSWCAN_sfc_thetae_024.txt.gz
Theta_e
303 304 304 304 304 304 304 304 305 304 304 305 305 306 307 307 307 302 295 300 298 293 293 296 296 292 291 291 285 290 290 291 290 283 285 286 285 287 286 288 286 289 290 289 290 288 286 304 303 297 300 302 306 305
303 303 303 303 303 304 304 304 304 305 305 305 305 306 307 307 308 306 297 299 302 296 293 298 298 299 298 296 293 292 290 289 291 286 288 289 287 287 286 283 292 286 289 290 292 291 300 303 301 303 308 304 306 306
302 303 303 303 303 303 303 304 304 305 305 306 306 307 307 307 307 304 299 296 299 296 293 289 291 298 300 300 301 289 291 295 294 295 292 290 286 292 287 288 289 292 296 291 293 298 297 301 302 303 308 309 311 308
302 302 302 302 302 303 303 303 304 305 305 306 307 307 308 308 307 305 299 295 298 297 289 288 298 295 301 301 300 298 295 296 295 296 293 290 287 294 289 290 290 293 296 293 294 297 298 301 301 302 302 309 313 313
301 302 302 302 302 303 303 303 304 304 305 306 307 307 307 307 306 302 297 298 301 295 288 288 295 297 297 300 299 299 297 294 292 289 289 287 291 292 292 293 291 297 293 290 291 298 296 298 301 303 302 302 311 313
301 301 302 302 302 302 303 303 304 304 306 307 307 306 306 307 305 295 290 299 301 299 289 284 294 295 298 300 299 296 296 294 292 289 288 290 295 293 288 287 295 298 301 301 297 302 300 300 303 304 302 303 309 313
300 301 301 302 302 302 303 303 304 305 305 306 307 306 306 306 297 292 291 297 301 298 290 287 287 296 298 300 298 295 294 293 292 289 288 289 289 293 288 283 291 296 300 301 303 303 298 300 300 303 304 304 306 313
300 301 301 302 302 302 302 303 304 305 305 306 306 306 306 305 301 294 296 302 302 294 293 286 285 290 299 292 291 295 292 291 290 289 290 288 289 290 286 291 295 296 297 298 301 303 302 302 303 302 304 304 305 309
300 301 301 301 302 302 302 303 304 305 305 305 307 307 300 295 292 296 308 304 299 295 287 289 285 284 298 295 295 294 293 287 291 286 287 288 286 283 289 290 292 294 295 295 299 302 302 300 301 301 302 302 302 305
300 301 301 301 301 302 302 303 304 304 304 307 302 299 294 298 307 305 298 294 293 295 291 288 292 285 292 292 291 291 291 290 287 288 291 286 284 292 293 294 293 294 295 296 294 295 300 300 301 302 303 303 302 304
300 301 301 301 301 302 302 304 304 303 304 297 293 293 297 305 299 295 290 290 292 291 294 294 294 291 297 289 288 291 287 288 282 287 287 287 287 292 295 295 295 295 295 295 298 298 300 303 302 303 303 303 304 305
300 301 301 301 301 302 303 303 302 297 295 296 298 299 297 297 292 289 284 289 290 288 294 293 294 294 294 294 288 289 285 286 281 290 286 285 291 295 295 295 296 296 296 296 298 299 301 302 304 304 305 303 304 309
300 300 300 300 301 302 303 301 302 302 302 301 297 296 290 288 282 285 281 284 287 290 293 293 291 294 292 291 288 287 284 282 290 284 284 287 293 294 294 295 296 297 298 298 299 301 302 305 303 305 305 304 306 306
299 300 300 300 301 302 301 301 301 301 298 295 291 280 283 282 284 289 285 287 292 291 293 292 291 290 292 287 287 284 284 288 283 281 282 289 291 295 296 298 297 297 299 299 299 301 302 305 301 305 306 306 305 305
299 300 300 300 302 300 300 300 301 300 299 294 290 280 283 289 291 292 293 290 292 293 292 290 289 290 285 286 287 285 280 280 283 283 286 292 295 297 298 298 298 298 299 299 301 301 302 304 301 303 305 306 306 308
298 299 298 301 299 299 299 299 301 303 301 296 293 287 290 289 289 290 290 290 292 293 293 290 285 284 283 282 284 282 282 282 285 286 293 296 298 298 299 300 299 301 303 301 301 302 304 305 304 305 308 309 311 310
297 291 299 298 298 299 299 298 303 302 296 293 288 292 291 290 289 289 290 291 292 291 287 289 283 282 284 279 278 285 285 286 291 294 296 297 298 299 300 301 302 301 302 303 302 302 303 306 305 304 303 307 311 313
291 292 297 298 297 297 300 303 301 298 293 292 289 290 291 292 290 290 292 293 292 291 290 288 290 282 279 280 282 287 290 294 296 296 298 298 298 300 302 301 303 302 302 303 304 304 303 302 301 301 304 305 308 309
294 296 298 299 297 292 294 300 300 291 293 294 293 292 291 290 293 294 295 294 294 294 292 290 287 283 283 290 289 291 293 294 294 295 297 300 298 299 302 303 303 302 303 303 303 304 304 304 304 305 305 305 306 306
298 298 297 298 298 294 296 296 300 293 289 292 294 291 290 290 292 293 292 293 292 291 289 287 287 289 289 292 293 295 294 295 295 294 294 296 297 297 299 301 301 302 303 304 303 300 304 303 306 307 305 303 305 305
295 296 297 296 296 295 296 296 293 293 293 293 293 292 291 292 291 290 291 293 291 288 287 290 290 291 294 294 296 296 295 296 294 294 294 292 298 296 297 300 302 301 302 302 302 302 302 303 304 307 306 306 306 308
291 297 293 297 293 296 294 298 294 293 291 292 291 292 288 285 288 290 293 290 290 291 290 291 292 292 294 295 296 296 297 297 296 297 296 296 297 295 295 296 299 298 300 301 302 302 302 303 305 306 305 305 303 303
294 294 292 295 293 291 289 295 290 291 288 289 289 288 287 286 289 293 289 291 292 295 293 292 295 295 295 298 297 297 298 297 295 295 296 296 296 296 296 296 296 295 296 300 302 302 303 296 299 305 305 304 303 303
297 292 289 287 289 284 292 289 291 288 287 285 283 286 287 288 290 287 286 287 291 293 293 294 294 291 292 295 293 293 294 297 297 298 297 295 295 296 296 295 296 298 297 298 299 301 302 303 299 302 303 302 301 301
284 281 282 276 286 287 287 286 286 284 286 286 285 286 286 288 282 286 286 287 291 291 292 293 292 292 290 290 293 294 294 294 296 295 297 297 296 298 298 295 295 296 297 297 297 298 299 301 302 302 301 299 299 299
277 279 279 283 283 284 284 283 284 284 286 285 286 287 286 284 284 284 287 290 290 291 292 292 291 291 291 291 291 291 292 293 293 292 294 296 298 293 292 292 292 293 297 299 299 300 298 298 300 301 300 300 294 300
274 276 282 290 287 289 285 286 287 285 285 283 283 283 282 281 283 288 291 293 292 292 293 293 290 289 288 288 291 293 293 294 294 295 297 297 297 297 295 292 292 294 297 299 300 300 298 298 297 297 297 298 299 299
281 282 280 283 285 285 284 282 284 284 287 289 288 284 283 284 284 290 292 294 294 294 295 293 290 288 288 290 292 292 291 292 295 296 294 295 297 296 297 296 295 288 296 295 297 299 300 298 297 295 294 293 293 294
281 282 284 281 282 283 283 284 285 288 292 289 284 284 287 291 292 291 293 294 295 292 288 287 289 295 295 294 293 291 290 290 290 289 287 285 287 291 294 296 295 295 298 293 286 290 293 294 294 293 292 290 291 290
281 286 282 282 282 281 285 287 287 289 290 290 290 290 291 292 292 295 295 294 292 291 291 291 292 293 292 291 290 290 291 289 288 286 285 284 285 287 289 292 294 295 297 296 295 294 288 292 289 291 289 287 286 286
287 285 282 282 283 286 288 289 290 290 290 291 291 289 287 290 291 294 293 294 295 294 292 291 291 291 290 289 288 287 286 285 285 284 284 285 286 287 288 288 290 294 295 295 293 292 291 288 286 284 285 285 286 285
285 284 283 281 283 287 289 287 287 288 288 287 286 286 287 287 286 289 292 292 292 291 287 291 291 291 292 291 288 285 283 282 282 282 282 282 283 284 286 289 291 293 292 291 290 289 287 285 283 282 282 281 281 280
285 286 285 284 281 283 286 286 284 283 283 281 286 287 287 287 286 289 293 291 292 291 290 290 290 290 290 287 285 283 282 282 281 280 280 279 279 280 283 286 290 290 289 287 286 285 284 283 282 281 281 280 280 280

GFSWCAN_sfc_thetae_030.txt.gz
Theta_e
302 303 303 303 303 303 303 303 304 304 305 305 305 306 307 307 308 302 297 299 296 290 291 293 292 289 291 290 286 290 289 287 289 284 284 283 284 287 286 288 285 285 284 282 284 281 282 298 296 289 293 296 298 299
302 302 302 302 302 302 303 303 303 304 305 305 305 306 307 308 308 307 297 298 300 294 292 297 296 297 295 294 291 292 290 290 292 286 287 288 286 287 286 282 290 285 289 286 289 290 296 298 297 298 297 297 298 298
301 301 302 302 302 302 302 303 303 304 305 305 305 306 307 307 308 306 299 298 297 292 292 292 292 295 298 297 299 290 288 295 291 295 292 290 286 289 284 285 287 291 294 290 291 295 296 297 301 299 299 299 300 300
300 301 302 302 302 302 302 302 303 304 304 305 305 306 307 307 306 306 300 300 298 293 288 289 299 297 302 301 299 298 296 297 296 297 292 290 286 292 287 289 287 290 293 292 291 295 296 298 298 299 300 301 300 301
300 301 301 301 302 302 302 302 302 303 304 305 306 306 306 306 305 301 295 299 300 293 288 290 295 299 302 302 300 301 297 294 293 291 290 287 287 291 293 292 289 293 291 290 288 294 294 295 299 301 300 299 300 300
301 301 301 301 301 302 302 302 302 303 304 305 305 305 306 306 304 293 287 292 299 299 292 286 292 294 299 301 300 299 298 293 294 292 290 289 290 292 286 284 291 295 296 298 295 299 299 299 301 302 300 300 301 301
301 301 301 300 302 302 302 302 303 303 304 304 304 305 306 306 295 290 289 296 301 300 292 287 287 294 298 298 298 297 297 295 294 293 290 286 287 289 285 281 290 293 294 295 298 299 297 299 297 301 303 302 303 303
301 301 301 301 301 301 302 302 303 303 303 303 303 307 307 306 301 293 296 303 301 293 294 286 285 291 297 293 293 296 294 293 289 291 288 286 288 287 282 290 293 295 295 295 296 297 296 298 300 301 303 302 301 301
301 301 301 301 301 301 302 302 302 303 303 302 305 306 299 293 291 294 305 304 296 291 287 288 285 284 296 294 295 290 290 289 293 290 291 291 284 283 288 293 294 295 293 294 296 296 296 296 299 301 302 301 300 300
302 301 302 301 301 301 302 302 302 303 302 303 298 294 290 294 304 303 295 291 290 291 294 288 290 286 292 293 291 287 288 287 285 290 293 288 287 294 296 296 296 297 297 296 293 292 294 295 297 299 299 300 301 301
302 302 302 301 301 301 302 302 302 302 299 293 291 290 295 302 295 291 287 286 286 284 290 290 290 287 296 289 287 289 285 286 282 285 287 286 286 291 296 297 299 299 299 299 298 297 296 296 295 296 298 300 302 302
302 302 302 301 300 300 301 302 302 292 291 293 294 297 298 292 288 286 281 284 285 284 288 287 288 290 293 294 288 288 285 285 280 289 286 284 290 295 297 298 299 301 301 301 300 298 298 298 298 298 299 300 302 304
302 302 301 301 300 300 302 302 301 300 299 300 297 294 289 286 279 283 280 282 282 286 288 288 286 288 291 291 287 284 279 274 283 280 282 288 293 295 296 298 299 302 302 303 303 301 300 300 300 300 300 302 303 304
302 302 301 301 301 301 301 300 300 297 294 292 290 284 285 283 283 283 282 284 288 287 288 286 285 286 285 283 285 278 281 283 273 273 282 289 292 294 296 299 299 299 301 301 303 303 301 300 300 301 302 303 304 304
302 302 301 299 300 299 300 300 300 294 293 291 288 280 285 288 288 288 289 288 289 289 288 286 285 286 281 283 286 282 281 272 281 282 287 289 293 294 295 297 299 300 300 300 303 302 301 300 300 301 302 304 305 305
302 299 295 299 299 300 300 298 295 295 295 293 290 285 287 288 288 288 288 287 289 288 288 287 283 282 280 280 276 281 281 272 282 286 292 295 294 293 294 296 299 301 301 302 301 302 302 302 301 302 304 305 306 304
300 293 297 299 299 300 299 293 294 297 294 292 287 290 288 288 289 289 289 289 289 288 284 285 283 281 282 276 273 284 279 286 288 292 294 293 294 293 294 296 298 300 300 302 301 301 300 303 302 301 301 303 306 305
296 294 298 299 299 296 292 294 294 294 292 292 287 288 288 290 289 290 290 291 289 287 287 286 286 281 274 275 273 279 287 287 290 291 292 293 294 294 295 295 298 298 298 300 301 300 301 300 301 302 303 304 304 306
298 297 299 299 297 293 288 291 295 289 291 290 289 289 289 289 290 292 291 292 291 291 290 287 284 280 280 283 285 286 288 289 290 290 292 294 294 294 294 295 296 296 297 298 300 301 301 301 302 305 305 305 303 304
300 299 299 298 297 291 290 290 296 290 287 289 289 288 288 289 289 289 289 291 290 290 287 285 285 285 286 288 289 290 291 292 290 289 290 293 293 294 293 293 293 294 295 298 301 298 301 301 302 303 303 302 303 303
295 294 296 295 294 292 291 289 289 289 289 289 291 289 289 288 287 287 288 290 288 286 285 288 289 289 290 291 292 292 292 292 290 291 291 291 293 292 292 293 294 293 293 295 298 301 300 301 302 303 303 302 303 303
294 296 293 295 290 291 288 290 287 290 289 288 287 288 285 281 284 286 288 287 288 289 289 289 290 291 290 291 293 293 293 293 292 292 292 291 291 292 292 291 291 292 293 293 295 298 301 301 301 302 302 300 300 303
295 293 290 289 288 289 287 294 289 289 284 285 285 284 283 282 286 289 285 287 289 292 291 290 292 292 292 295 296 294 295 293 291 292 292 292 292 293 292 292 291 292 292 294 295 296 300 295 300 300 301 301 300 299
295 289 286 286 285 282 288 286 286 283 282 282 280 283 283 284 286 283 283 285 290 290 290 291 291 292 293 293 291 292 293 294 293 292 292 291 291 292 293 292 292 292 293 293 295 297 298 298 297 300 300 299 300 298
285 282 282 279 285 285 284 284 284 280 284 284 283 283 282 285 280 282 283 285 287 287 289 290 290 292 292 292 291 292 294 295 291 290 291 291 291 291 291 291 291 292 293 294 295 295 296 297 297 299 297 296 297 296
278 278 278 281 282 282 283 282 282 283 283 283 283 284 281 281 281 282 284 286 285 287 288 290 290 288 287 291 291 292 294 292 291 290 290 290 290 289 288 287 288 291 293 293 295 295 294 294 294 294 294 294 291 295
273 274 280 285 283 284 281 284 284 281 282 282 281 282 281 281 281 284 287 288 289 290 290 291 291 291 292 290 290 291 291 291 292 292 292 292 291 291 289 288 288 290 292 295 296 295 293 292 292 292 291 291 291 292
280 281 278 279 281 281 281 281 282 282 283 285 284 282 282 283 283 287 288 290 290 288 288 287 286 287 287 289 290 291 291 292 293 291 290 289 289 289 289 291 293 287 292 291 293 293 292 291 290 290 289 288 289 290
281 280 281 279 280 280 281 281 281 283 287 288 283 282 286 289 291 290 290 291 291 289 288 289 288 288 288 287 286 285 287 288 287 286 285 283 283 285 287 288 292 294 294 291 284 286 288 288 288 288 288 289 289 289
279 282 279 279 279 279 281 284 284 287 289 289 289 289 289 290 292 294 292 290 289 288 289 290 290 289 287 286 284 284 284 285 286 286 284 283 284 285 285 286 288 291 292 291 289 288 284 287 285 287 287 287 285 284
282 283 282 280 280 282 285 288 288 286 285 285 286 284 284 286 289 289 290 290 291 292 290 290 288 288 288 285 285 285 282 282 283 283 283 283 284 284 285 286 288 291 290 289 288 287 285 283 282 282 283 283 283 282
280 280 280 279 279 283 287 283 283 283 284 283 283 284 286 285 285 286 288 289 289 288 286 288 288 285 286 285 284 283 282 282 282 282 282 282 282 283 284 286 288 288 287 286 286 284 283 281 280 280 280 280 280 280
279 281 281 282 280 282 284 283 281 281 281 280 283 285 286 284 284 287 291 290 288 288 288 288 288 288 287 284 283 282 281 280 278 278 278 278 278 280 283 284 285 285 283 283 282 281 281 280 280 280 279 279 279 278

GFSWCAN_sfc_thetae_033.txt.gz
Theta_e
302 302 302 302 303 303 303 303 303 304 304 305 305 305 306 307 308 305 302 301 297 291 292 294 294 290 291 290 286 291 290 291 289 285 285 286 284 287 287 289 286 287 286 284 287 285 286 301 300 294 298 302 302 302
301 301 302 302 302 303 303 303 303 303 304 304 304 305 306 307 308 308 300 301 301 294 293 299 297 298 297 296 291 292 290 290 292 288 289 288 287 287 287 284 292 286 291 289 290 292 297 301 300 303 303 301 302 303
301 301 301 302 302 302 302 303 303 303 304 304 304 305 306 307 307 307 303 301 299 293 293 295 294 299 301 299 301 290 293 295 295 297 291 290 286 289 285 286 287 292 295 292 293 295 295 298 300 302 303 303 304 305
302 302 302 302 302 302 302 303 303 303 304 304 305 305 306 306 307 305 302 303 299 294 288 293 301 298 303 303 300 298 297 298 298 297 291 290 287 292 288 289 288 290 292 292 292 295 296 300 299 300 301 304 304 306
303 303 302 302 302 302 302 302 303 303 303 304 305 305 305 305 306 305 304 303 303 295 290 292 299 300 302 302 300 299 297 295 294 292 291 291 294 294 295 292 290 293 291 290 290 295 294 295 299 301 301 302 305 304
303 303 303 303 302 302 302 302 302 303 304 304 304 304 305 305 304 300 295 300 303 301 291 286 298 297 299 302 301 300 299 296 295 293 293 295 296 294 290 289 293 295 297 297 294 299 300 300 302 303 302 302 306 304
304 304 303 303 303 303 302 302 303 303 303 304 303 303 307 307 303 297 296 300 302 301 293 288 289 297 299 300 300 299 298 297 296 295 293 295 293 293 292 287 294 296 297 298 299 299 298 300 297 300 301 303 305 306
303 304 303 303 303 303 302 302 303 303 303 303 303 306 307 304 303 299 301 303 304 298 296 286 288 293 299 294 295 299 296 296 295 295 294 292 295 293 289 293 295 297 297 297 298 299 299 300 299 299 301 302 304 304
304 304 304 304 303 303 302 302 302 303 303 302 303 305 303 300 299 300 304 305 302 298 291 288 285 285 299 297 296 296 296 292 297 291 291 292 288 288 290 292 292 294 293 294 297 297 299 298 298 298 300 301 301 303
304 304 304 304 303 303 302 302 303 303 303 301 302 299 296 299 304 306 300 296 295 296 295 289 293 288 295 294 292 292 294 289 286 291 294 290 290 294 296 297 298 298 299 299 295 295 297 298 298 299 298 300 301 303
304 304 304 303 303 303 303 302 303 303 297 294 292 294 297 302 300 297 293 291 292 291 294 293 294 290 297 291 289 292 289 290 285 289 288 287 288 294 298 298 299 300 301 301 302 301 302 301 299 299 299 300 301 303
303 303 303 303 303 303 302 303 303 297 294 293 294 296 297 296 293 290 289 290 291 290 294 294 295 294 295 296 289 291 286 289 282 292 288 286 292 297 298 298 299 300 301 302 303 303 304 302 303 301 301 301 302 304
303 303 303 303 303 302 303 302 302 301 300 300 295 293 293 292 287 287 285 288 289 293 295 294 292 296 293 293 291 288 283 286 291 287 287 290 296 298 299 298 298 301 302 302 301 304 304 304 303 303 301 303 304 304
302 302 303 303 303 302 300 301 301 299 295 292 291 286 288 287 289 291 291 292 295 295 296 295 294 294 294 291 288 284 288 288 283 283 284 292 296 298 299 300 299 300 301 302 301 302 303 303 301 303 303 304 304 304
302 302 302 302 300 300 301 301 300 298 293 291 292 287 289 294 293 294 295 294 296 295 294 294 293 293 291 289 288 286 284 282 284 286 290 295 299 299 299 300 300 301 302 302 303 301 301 303 302 303 305 306 305 306
302 302 298 299 299 300 301 300 297 297 294 293 293 290 294 292 293 292 294 294 297 294 294 293 290 289 288 287 285 282 282 282 289 290 295 298 299 300 300 300 301 302 301 302 303 303 302 302 303 305 308 308 309 310
301 297 298 299 300 300 300 296 296 296 294 293 293 297 295 294 294 295 295 296 296 294 292 292 288 287 288 285 284 286 284 291 294 297 300 300 299 300 300 301 301 301 301 302 302 304 302 303 304 305 305 306 307 309
297 300 300 300 299 298 294 295 294 295 293 296 294 296 294 296 296 296 296 296 296 295 293 292 292 288 286 284 286 290 292 296 298 299 300 300 301 301 301 301 301 301 302 303 303 303 304 301 300 302 304 306 307 307
298 300 301 301 299 294 289 292 295 289 294 297 296 296 295 296 296 298 297 297 298 298 296 294 290 290 291 292 293 295 297 298 298 300 300 301 301 301 300 301 301 301 302 303 304 304 304 304 301 302 301 303 303 306
300 300 299 298 297 290 289 291 297 293 290 295 294 294 295 296 296 296 296 296 295 295 292 291 293 296 296 297 298 298 300 300 300 298 298 301 302 301 301 300 301 302 302 303 305 299 305 304 304 305 301 299 302 301
296 296 296 295 293 291 289 289 290 292 294 292 295 295 295 294 294 293 294 296 293 293 292 295 296 298 299 299 299 301 300 300 300 300 299 298 301 301 300 300 301 302 302 302 302 303 302 303 304 305 305 302 300 299
295 296 293 294 289 291 288 291 289 291 290 293 292 293 291 291 292 293 294 292 293 295 296 297 297 299 297 297 298 300 302 301 301 300 294 297 299 300 300 300 299 300 301 302 302 303 304 305 303 304 304 304 300 301
295 294 291 290 287 288 287 294 289 291 286 287 290 289 289 289 291 293 291 292 294 298 299 298 299 299 299 300 300 301 301 301 300 299 300 301 300 301 301 300 300 299 299 301 303 304 304 295 301 304 304 302 302 300
295 290 286 285 285 283 289 288 291 290 289 288 287 287 288 290 292 290 288 291 294 297 297 297 297 297 298 299 299 300 301 301 300 299 300 299 298 301 300 299 299 300 300 301 303 303 304 303 297 301 298 300 300 299
285 284 284 282 287 285 284 286 287 286 286 288 286 287 289 290 288 287 287 291 294 295 296 297 297 298 298 298 300 299 300 302 300 298 298 299 300 300 298 298 299 300 301 301 301 301 301 300 298 298 297 294 295 295
280 282 282 283 284 284 285 284 285 286 286 285 287 289 289 287 285 285 288 291 292 294 295 295 295 295 296 299 298 298 300 301 299 297 297 298 297 297 296 296 297 298 300 300 300 299 298 296 298 296 294 293 289 293
278 278 283 287 286 286 286 288 288 286 285 284 287 286 286 282 283 288 292 293 293 294 295 296 297 297 298 298 299 300 300 299 299 299 298 298 298 298 298 297 296 297 298 299 298 298 297 295 295 295 294 293 291 292
283 283 280 283 283 285 284 285 284 284 287 289 289 285 284 285 286 291 293 296 296 296 294 294 295 298 298 299 298 298 298 299 298 296 295 295 296 296 297 299 299 287 295 294 297 297 296 294 293 292 291 290 290 291
282 284 284 281 283 284 284 284 285 288 291 290 287 286 288 293 295 295 297 296 296 296 294 293 294 294 294 294 295 298 299 297 295 293 293 293 292 293 295 297 298 299 298 294 284 288 291 292 292 291 290 289 289 289
281 285 282 282 281 281 285 288 287 290 292 292 292 291 292 293 297 297 296 296 294 294 295 294 294 293 293 293 290 289 291 294 295 294 292 291 291 293 294 295 297 298 297 296 294 292 286 290 289 291 289 288 286 286
286 284 282 282 281 285 287 289 290 290 290 289 291 289 289 291 293 293 292 292 294 295 295 293 292 293 291 291 291 289 287 288 289 290 292 292 292 292 293 293 296 297 295 294 292 291 289 288 288 287 286 285 284 283
284 283 281 279 282 286 288 286 287 286 287 287 287 289 289 288 287 289 290 291 293 293 289 291 291 289 289 288 287 287 286 287 287 287 287 289 290 291 292 293 293 293 292 290 288 288 287 286 285 285 283 282 282 281
282 283 283 283 282 282 286 286 285 284 285 285 286 288 288 288 285 287 290 289 289 290 291 292 291 291 289 288 286 286 284 283 282 281 281 282 283 286 290 290 289 288 288 287 287 286 285 284 283 283 282 282 281 281

GFSWCAN_sfc_thetae_036.txt.gz
Theta_e
303 303 303 302 302 303 303 304 304 304 304 304 305 305 305 307 308 307 305 307 300 293 295 296 296 291 291 290 287 293 292 294 293 288 287 288 286 288 288 289 288 288 286 286 288 286 288 303 304 299 301 307 307 308
304 304 304 304 303 303 303 303 303 304 304 304 304 305 305 306 307 307 303 308 305 296 296 302 301 301 297 296 292 292 293 292 293 289 290 289 287 288 287 287 294 288 292 292 293 292 298 302 302 306 307 306 307 308
305 305 304 304 304 303 303 303 303 304 304 305 304 305 305 305 306 307 305 305 303 296 297 299 297 301 302 300 302 291 294 296 295 299 292 292 286 289 285 287 289 295 298 294 296 295 296 299 305 306 307 307 308 310
305 305 305 304 304 304 303 304 303 303 304 304 305 305 304 304 305 306 304 306 303 297 289 297 306 300 304 304 301 300 297 299 298 299 294 293 289 295 289 289 289 291 292 291 295 298 298 300 303 304 305 307 308 310
305 305 305 304 304 304 304 304 304 303 303 304 305 305 304 304 305 306 305 306 306 298 293 296 302 304 304 304 301 300 297 296 295 294 294 291 294 294 297 294 292 296 292 290 290 299 297 298 302 304 303 305 305 308
304 305 305 305 305 304 304 303 304 304 304 304 304 304 304 306 306 305 301 307 308 303 293 289 303 302 304 304 303 302 299 297 296 294 295 299 300 297 290 290 295 298 299 299 296 301 301 304 304 304 303 303 305 307
304 304 304 305 305 304 304 304 304 304 304 304 305 304 306 307 306 304 301 305 305 303 293 290 297 303 304 304 303 302 302 300 297 296 296 297 296 298 292 290 295 296 298 298 300 300 300 302 302 303 303 304 305 308
304 304 304 304 304 304 304 304 304 304 304 304 304 303 306 305 304 304 307 304 306 301 299 290 294 299 305 301 297 306 300 300 299 297 299 294 296 296 291 293 294 296 297 297 297 299 299 302 304 303 305 304 304 307
304 304 304 304 305 304 304 304 303 304 304 303 302 306 307 305 305 303 305 304 307 302 292 291 289 288 305 299 302 300 303 294 302 295 295 294 292 289 291 294 295 296 296 297 299 300 301 300 302 304 305 305 304 306
304 304 304 304 304 304 304 304 303 304 303 302 303 304 302 305 304 305 301 297 297 298 299 293 300 294 298 298 297 297 301 298 293 297 298 293 293 296 299 299 299 299 300 301 299 298 300 300 302 304 305 305 305 305
302 303 304 304 304 305 304 304 303 303 303 302 296 297 301 304 303 301 295 294 295 293 297 298 300 297 301 292 291 295 292 296 291 294 294 293 292 297 301 301 302 302 302 302 302 302 303 304 306 304 306 306 306 306
300 302 303 304 304 304 304 304 303 303 302 300 298 299 298 297 299 295 295 297 295 294 299 298 299 300 299 299 292 294 289 294 288 297 293 289 295 300 300 300 303 305 304 303 304 301 302 305 307 307 305 307 307 307
300 302 303 303 304 303 304 302 302 302 302 302 295 292 294 299 288 290 287 292 293 297 299 299 297 301 298 297 292 291 286 289 299 290 291 295 297 301 301 302 303 304 303 304 303 303 302 304 306 306 305 308 307 307
300 301 302 303 303 303 301 302 302 302 300 296 292 287 293 291 294 295 295 296 300 300 300 300 299 298 298 293 293 286 294 294 287 285 287 296 299 301 302 303 303 301 303 302 302 301 302 303 304 303 305 307 307 307
299 301 302 303 301 301 301 301 301 303 299 293 294 287 292 298 300 300 301 301 301 304 301 299 299 299 296 293 293 290 288 285 287 287 296 300 302 302 302 303 303 303 304 304 303 301 301 303 305 306 309 311 309 309
298 300 302 299 299 301 302 302 303 303 298 293 293 293 298 297 296 298 299 298 303 303 303 300 295 293 292 293 288 286 285 285 289 293 300 302 302 303 303 304 304 304 304 304 303 303 303 304 304 306 308 308 310 311
299 300 301 301 301 301 301 298 300 293 293 293 293 300 297 298 297 297 299 299 304 300 295 297 289 289 295 291 288 290 287 291 298 299 302 303 303 303 304 304 304 304 305 305 304 304 304 305 305 306 306 307 308 310
295 298 300 301 301 299 299 298 297 294 291 296 295 299 301 301 299 299 301 302 301 299 298 294 298 292 289 288 292 295 299 301 301 301 302 303 305 305 304 304 304 305 305 306 306 305 304 305 304 301 301 305 306 305
296 298 299 300 300 295 293 294 297 291 293 298 300 301 301 300 302 303 302 303 304 303 301 298 293 292 294 296 295 297 300 300 299 301 303 304 306 305 304 304 304 304 305 306 307 306 306 305 306 306 305 303 301 302
297 299 299 298 297 292 289 292 299 293 291 298 300 299 300 300 301 301 301 301 301 299 296 294 294 296 297 300 301 301 302 304 302 300 299 304 307 305 305 304 303 304 304 305 306 300 306 305 306 306 305 303 301 301
296 299 298 296 294 292 290 294 292 294 295 294 298 299 298 301 298 298 298 301 298 296 293 297 297 299 302 303 303 304 303 304 302 301 302 302 303 304 305 304 304 303 302 303 303 304 303 305 307 305 305 303 303 303
295 297 296 296 290 291 290 296 293 294 292 294 295 297 295 294 295 296 299 296 295 297 298 299 300 300 300 301 303 305 305 306 305 302 295 298 302 299 299 302 302 300 301 303 304 304 305 306 306 306 305 303 301 302
295 295 292 292 287 287 288 296 291 292 289 292 295 291 292 293 296 299 294 297 298 301 301 301 301 302 301 302 305 305 306 305 303 302 302 302 302 302 302 303 303 301 300 302 305 306 304 296 302 304 305 304 301 301
296 290 286 285 286 284 290 289 291 291 293 292 291 289 292 294 298 294 290 295 298 301 300 300 300 300 302 302 302 304 305 306 304 303 303 301 300 301 303 303 303 304 304 305 305 305 305 302 297 300 301 300 300 299
284 284 286 282 288 285 285 286 288 289 287 289 288 289 292 296 290 289 290 295 297 297 298 300 301 300 299 300 302 304 307 305 302 301 301 303 301 300 301 302 302 304 305 303 302 302 302 301 300 299 298 297 298 298
280 285 283 284 285 285 286 284 285 287 288 287 288 292 296 291 287 287 292 296 297 298 299 299 299 299 299 299 300 303 305 306 304 301 301 301 301 300 299 299 299 299 304 303 301 300 300 300 300 298 298 296 290 294
278 282 287 292 289 288 286 289 291 289 286 286 289 289 289 284 285 291 296 298 298 299 300 300 301 300 300 301 303 306 306 306 304 302 303 303 302 303 303 299 298 301 303 302 301 300 299 298 298 297 294 294 293 292
284 285 282 286 286 287 284 286 286 285 287 292 291 286 286 287 289 296 298 300 300 300 301 301 301 302 305 304 305 305 304 304 304 303 302 302 303 303 303 303 302 287 300 299 300 300 299 298 297 296 293 292 291 291
283 286 286 282 284 285 285 285 286 289 292 290 288 287 289 294 298 299 299 300 301 299 298 299 301 302 304 305 304 304 304 302 299 297 296 296 297 298 301 302 302 302 301 298 283 289 294 294 295 295 294 293 292 291
283 287 283 283 282 281 285 288 287 290 292 291 292 292 292 294 298 301 299 298 297 297 298 299 299 299 299 299 299 300 303 303 302 299 297 297 298 299 299 300 300 301 301 301 299 296 286 293 291 296 293 293 291 290
287 286 283 283 283 286 288 290 291 291 290 290 291 289 290 292 295 298 295 296 298 298 298 298 297 298 298 297 297 295 293 296 296 296 298 298 298 298 299 300 301 300 299 299 298 297 296 294 293 291 290 289 287 286
285 283 283 281 283 288 290 288 288 288 288 287 287 289 289 289 289 289 289 290 294 294 290 296 294 292 294 294 294 294 290 294 294 294 294 295 296 296 299 299 299 298 297 295 295 295 292 291 291 289 288 286 286 285
283 285 285 284 284 284 287 286 286 286 288 288 288 290 290 289 283 284 289 288 287 287 291 292 292 291 291 291 289 288 287 288 285 283 284 284 284 288 295 296 295 293 292 293 292 291 289 288 288 287 286 286 284 284

GFSWCAN_sfc_thetae_042.txt.gz
Theta_e
307 307 307 307 307 307 306 306 306 306 306 306 307 306 306 306 307 305 302 308 303 295 298 301 301 294 293 291 287 291 293 296 294 289 288 287 287 289 288 290 287 289 288 289 291 287 285 299 302 297 301 309 310 311
307 307 307 307 307 306 306 306 306 305 305 306 306 307 306 305 307 306 299 308 309 299 298 305 305 307 305 301 293 292 293 294 296 290 291 291 288 290 288 285 293 288 290 288 291 290 298 302 301 305 306 306 308 310
307 307 306 306 306 306 305 306 306 306 305 306 306 307 306 306 306 305 301 304 304 298 301 302 301 306 309 306 304 292 296 300 298 300 295 293 288 293 286 287 290 294 298 293 293 295 299 301 304 306 306 306 309 310
306 306 306 306 306 306 306 306 306 306 305 305 306 307 306 306 306 304 301 306 304 300 293 300 311 306 311 308 305 303 301 301 301 298 294 293 292 298 292 292 291 294 296 294 294 297 299 300 302 304 306 307 308 309
305 305 306 306 306 306 306 306 306 306 306 305 306 307 307 306 305 305 306 307 308 301 294 298 304 307 310 308 304 303 300 298 296 295 295 292 299 298 297 293 292 296 294 291 290 298 298 298 302 304 304 305 308 308
304 304 305 305 305 305 305 305 306 306 306 306 306 306 306 306 305 306 300 309 309 307 296 292 306 306 308 308 306 303 302 299 298 297 296 301 304 299 294 292 297 297 298 299 296 300 301 303 304 306 305 305 307 308
303 303 304 304 304 305 305 306 306 306 306 306 306 306 305 305 305 305 301 305 309 308 297 293 297 305 307 306 304 304 305 301 300 298 297 300 299 301 296 289 296 297 298 299 301 302 300 302 301 305 306 307 307 308
301 301 302 302 302 303 304 305 306 306 306 306 306 305 306 306 306 306 309 306 310 304 301 292 295 299 309 302 300 305 303 304 303 300 302 298 300 298 292 296 299 299 300 299 301 303 302 304 305 305 308 307 306 307
300 300 301 301 301 302 303 304 305 305 305 305 305 305 306 306 305 303 305 306 310 304 295 294 291 292 307 302 303 301 301 295 303 298 298 300 298 293 296 298 299 300 300 301 303 302 303 303 303 304 306 307 306 307
299 299 300 301 301 302 303 304 305 305 305 304 306 305 301 303 306 306 304 300 297 299 299 295 300 298 301 300 298 298 300 297 294 298 301 295 297 300 301 301 302 301 302 303 301 299 300 301 302 303 304 306 308 307
298 299 299 300 301 302 303 304 304 304 305 306 302 302 306 307 305 302 297 294 295 293 297 300 301 298 305 297 296 298 294 297 292 296 294 295 294 298 303 302 303 305 304 304 304 303 303 303 303 304 304 306 308 309
298 298 299 300 300 301 302 303 303 302 302 300 299 301 303 300 297 293 293 297 297 295 300 299 299 303 304 304 297 296 292 294 290 300 295 292 297 301 302 301 303 306 305 304 304 303 303 304 305 306 306 305 308 310
297 298 298 299 300 301 303 303 303 303 302 303 297 293 294 295 289 291 289 294 295 299 300 300 298 302 302 301 296 294 288 289 300 293 291 296 299 301 302 302 303 304 305 304 304 305 305 304 304 305 306 305 307 309
297 297 298 299 300 302 302 302 302 302 301 298 295 288 292 292 295 297 297 298 301 302 300 300 299 299 302 297 296 289 294 296 288 285 289 297 300 301 303 303 302 302 304 303 304 305 304 304 303 303 306 309 309 310
297 297 298 300 301 301 301 301 301 302 299 295 297 288 293 299 301 302 303 302 303 304 301 299 300 300 298 295 296 294 289 288 290 290 297 300 302 303 303 304 303 302 303 304 305 304 304 305 304 303 305 306 306 307
296 297 299 300 299 299 300 301 302 302 299 296 296 295 299 298 299 301 301 301 304 303 303 301 296 294 294 295 291 289 288 287 292 301 301 303 303 304 304 305 304 304 304 305 305 304 305 304 304 303 304 304 304 305
296 297 299 298 298 299 300 299 298 296 294 294 295 299 298 298 298 300 302 303 306 301 297 297 293 292 297 293 291 296 289 297 301 300 302 304 304 305 305 307 304 304 305 304 305 305 305 305 305 304 301 302 303 304
295 298 298 297 297 298 301 299 295 295 290 295 293 296 299 301 300 302 304 305 304 301 299 296 299 294 292 290 293 300 302 303 303 303 303 304 305 305 304 304 304 305 304 305 305 305 306 305 303 303 303 303 303 302
296 296 297 297 297 294 293 296 298 291 294 296 298 300 300 301 303 304 305 306 306 306 302 299 294 293 295 299 298 300 301 302 302 302 304 306 306 304 304 304 304 305 304 306 305 305 306 306 305 304 304 302 301 301
297 297 298 299 297 293 290 294 301 294 292 296 298 298 299 299 302 303 305 305 303 301 297 296 296 298 299 301 303 303 304 304 304 300 301 304 305 306 305 304 303 304 304 306 305 300 305 305 305 305 304 302 301 301
296 297 297 298 296 294 293 293 293 295 296 294 297 297 297 300 299 300 302 304 301 300 298 300 301 303 306 306 305 306 304 305 303 303 302 302 304 304 305 305 305 303 302 303 302 303 303 305 305 304 304 303 302 302
295 297 295 295 291 292 290 294 292 294 292 293 294 295 294 293 294 296 301 299 298 300 302 302 302 303 304 304 304 307 306 306 306 303 298 299 302 301 302 302 302 301 302 304 304 304 304 304 304 304 303 304 301 302
296 296 292 291 287 288 286 294 289 291 288 290 294 291 293 295 297 301 297 299 299 303 304 304 305 306 305 306 306 305 306 305 304 304 303 303 303 303 303 303 303 301 302 303 305 305 304 295 301 303 303 303 302 301
297 290 287 287 287 284 290 288 291 290 290 290 289 288 291 293 297 295 292 297 300 302 303 304 305 303 304 304 303 303 303 305 305 305 305 303 301 302 303 302 302 303 304 304 304 304 304 303 298 302 301 301 301 299
284 284 286 283 288 285 284 285 286 287 285 288 287 288 290 295 291 290 291 295 299 300 302 304 302 303 301 301 303 304 306 306 303 303 305 304 303 302 301 302 302 302 305 303 301 301 302 302 301 300 299 298 298 297
279 283 283 284 285 284 284 283 284 285 286 286 288 291 293 291 288 288 292 297 299 301 303 301 301 301 301 302 302 303 305 307 307 303 304 303 303 301 300 299 299 299 303 302 301 299 299 300 300 299 298 296 290 295
278 280 285 289 289 288 286 288 288 286 285 285 288 289 289 285 286 293 299 299 301 302 302 303 302 301 301 302 303 305 307 308 307 305 306 305 304 303 301 299 300 301 303 302 301 300 299 298 299 298 297 297 295 294
284 284 280 284 285 287 283 284 284 283 286 291 289 287 286 286 286 290 296 301 301 302 302 304 305 304 302 304 306 304 305 308 308 307 304 303 303 303 305 303 301 290 300 300 300 301 300 299 299 298 297 295 295 295
284 286 285 282 284 285 285 284 285 288 291 290 286 285 287 292 294 296 300 301 302 300 299 299 302 304 304 304 307 307 306 304 302 299 297 297 298 299 303 302 300 301 301 298 284 292 296 296 297 298 297 296 295 294
284 287 284 283 282 282 285 289 287 290 291 291 292 292 292 293 297 299 297 297 296 296 298 298 300 300 299 301 301 301 302 304 302 300 299 298 298 301 302 303 302 302 302 301 298 296 285 294 291 297 296 295 292 290
287 286 285 285 284 287 289 290 291 292 291 290 292 290 289 292 292 291 290 293 297 299 299 299 299 301 300 298 293 295 296 300 301 301 300 303 304 303 302 302 303 303 302 301 299 298 297 296 296 295 294 292 290 288
287 286 284 283 285 289 290 290 289 288 289 289 289 291 291 291 289 286 287 288 287 287 287 290 292 293 296 297 297 295 290 294 292 293 296 302 302 301 301 301 301 301 300 298 297 296 296 295 294 293 291 290 289 287
287 288 287 286 285 285 288 288 287 287 288 288 289 290 288 286 281 285 290 289 286 285 286 287 288 288 290 291 291 291 290 291 288 285 285 284 285 290 298 298 298 298 297 296 295 295 294 293 292 291 290 289 287 286

GFSWCAN_sfc_thetae_045.txt.gz
Theta_e
307 307 307 307 307 307 307 306 306 306 306 306 306 307 308 308 306 304 299 302 299 295 297 299 299 296 294 292 287 291 289 290 289 285 285 285 283 287 286 289 287 286 286 286 287 285 283 298 298 294 298 303 306 306
307 307 307 307 307 307 307 306 306 307 307 306 306 306 307 308 306 306 297 303 309 299 297 303 303 303 301 300 295 293 289 291 294 288 287 289 287 287 287 282 291 285 290 287 286 286 298 298 298 303 304 302 304 304
307 307 307 306 306 306 306 306 306 307 307 306 305 306 307 307 307 305 301 300 301 298 297 297 299 304 306 305 302 291 294 297 295 297 291 291 286 290 285 286 289 293 296 292 292 294 297 299 301 302 302 302 306 305
306 306 306 305 305 305 305 306 306 305 304 306 307 307 307 307 307 306 299 300 301 299 291 295 308 304 308 305 301 299 297 298 297 295 292 291 289 296 287 290 289 293 294 289 293 295 297 298 299 301 301 304 305 306
304 304 304 304 304 305 305 305 305 305 306 306 306 307 307 306 306 304 303 302 303 299 292 294 300 304 306 304 302 302 299 296 294 292 292 291 295 294 293 292 291 295 291 289 288 294 295 296 300 302 302 302 304 303
302 302 302 303 303 303 304 304 303 305 306 306 306 307 306 306 306 301 298 306 305 305 296 289 300 302 304 304 302 300 299 297 296 292 293 296 299 294 288 289 295 296 299 298 295 299 298 300 303 304 303 303 304 304
300 300 301 301 301 302 302 302 303 304 305 306 306 306 306 306 304 300 299 304 307 307 296 291 292 303 306 305 303 301 302 298 297 297 294 295 298 296 290 286 293 295 298 299 300 300 298 300 299 303 304 305 306 305
299 299 300 300 301 301 302 302 303 303 304 305 305 306 306 305 304 301 307 307 308 301 299 290 290 295 305 298 298 304 299 300 299 296 297 295 295 294 287 292 296 297 297 299 299 301 301 303 303 301 304 304 303 303
298 299 299 300 300 301 302 303 303 304 304 304 305 305 304 303 302 304 306 306 307 302 293 293 289 287 305 301 301 299 299 293 299 294 295 295 292 287 293 296 297 297 296 299 300 299 299 299 300 301 303 303 303 304
298 298 299 299 300 301 302 302 303 303 304 304 304 302 299 302 307 307 302 298 298 298 297 291 296 291 299 299 296 294 297 294 289 294 299 291 290 298 300 301 299 300 300 302 298 295 297 299 300 302 303 304 304 305
297 297 298 299 299 300 301 302 303 304 305 302 299 297 301 307 302 301 295 292 294 291 295 295 295 292 302 295 292 295 290 292 288 292 293 292 289 297 299 299 302 302 301 300 300 299 301 301 301 302 303 304 305 306
297 297 298 298 299 300 301 303 303 301 299 298 297 299 299 298 296 292 290 295 294 292 297 296 297 298 300 300 294 293 290 292 287 296 291 286 294 300 299 299 301 302 300 303 303 302 302 303 304 303 305 305 304 306
296 297 298 298 299 300 302 303 302 302 301 301 296 293 292 293 287 287 285 292 293 299 301 300 296 299 299 299 293 291 287 286 295 286 286 292 297 299 300 300 300 303 301 302 304 303 304 303 304 303 304 306 308 309
296 297 297 298 299 302 301 302 301 300 298 295 294 287 289 288 291 292 293 296 301 300 299 299 298 297 298 294 294 287 291 292 285 283 283 293 297 299 301 301 300 301 301 302 303 302 302 303 302 303 304 305 305 306
296 297 298 300 299 299 299 299 300 300 296 293 295 287 291 295 297 299 301 301 302 302 299 297 298 298 295 293 294 292 288 283 284 283 290 296 300 301 301 301 300 299 301 302 302 301 301 300 299 300 302 303 304 305
296 297 297 298 298 298 298 300 300 300 297 293 292 291 295 294 294 296 298 300 303 302 302 299 295 293 292 292 289 287 284 282 285 292 297 299 300 301 301 301 303 302 302 300 301 302 301 301 300 299 301 301 303 303
295 294 299 298 298 298 298 297 297 294 293 291 291 296 295 294 293 295 298 299 306 301 295 297 292 291 295 290 288 289 285 288 295 298 300 300 300 301 302 302 304 303 303 301 302 302 302 302 302 300 298 299 299 301
293 296 298 298 298 296 297 298 294 292 289 292 289 292 294 295 295 296 299 302 303 299 299 295 298 292 289 287 288 293 296 300 301 300 300 301 303 303 303 303 303 302 304 303 304 302 302 300 299 298 298 299 298 297
295 296 297 298 298 292 290 294 295 288 291 293 295 296 296 297 300 301 301 302 304 307 301 299 294 291 291 296 296 298 300 299 299 301 303 304 305 303 304 302 303 302 302 301 302 301 301 301 300 299 298 298 295 295
297 297 297 298 297 291 288 290 299 293 289 293 295 293 294 295 298 299 299 301 302 301 297 295 294 297 297 299 302 300 301 302 301 297 298 300 304 304 303 302 300 301 302 303 301 299 301 300 300 301 298 296 296 294
295 297 297 297 295 293 291 289 290 292 293 292 294 294 293 296 296 296 296 299 298 298 296 298 299 301 303 303 303 304 303 303 301 301 300 299 302 302 301 303 303 300 301 300 300 299 300 300 301 300 299 297 297 298
293 297 294 295 289 289 290 292 289 292 289 290 289 290 289 289 290 292 296 293 293 296 300 301 302 302 302 302 303 304 304 305 303 300 299 300 301 300 300 300 300 300 301 301 301 300 299 298 299 300 299 298 296 296
296 295 292 291 286 286 285 292 286 288 285 288 290 288 288 290 292 296 293 296 296 299 300 301 303 304 303 305 305 305 305 305 302 301 301 301 301 302 300 300 301 300 300 301 302 300 299 293 297 299 301 298 297 296
296 289 286 285 285 281 288 286 290 288 288 285 285 284 287 289 294 291 289 292 296 300 300 302 304 302 303 303 302 302 303 303 304 303 304 302 300 300 301 300 301 301 300 301 301 301 300 299 296 298 297 297 296 294
283 282 282 280 286 284 282 283 284 284 282 285 284 285 286 290 286 286 287 292 295 297 301 302 301 301 300 301 301 302 305 303 302 301 303 304 302 301 299 299 300 302 303 300 299 299 299 298 297 296 295 294 294 293
278 282 281 282 283 282 282 281 282 283 284 284 286 289 290 288 286 284 290 293 295 296 297 300 300 299 299 300 300 302 303 305 305 302 302 304 302 300 298 296 296 298 300 299 298 299 299 298 297 294 292 292 288 292
277 279 284 287 285 284 282 284 285 283 281 281 284 286 287 283 284 287 291 295 294 297 299 300 301 300 299 301 302 303 305 307 305 304 305 305 304 303 301 298 296 297 300 300 299 298 297 297 296 296 293 293 292 291
282 283 279 282 283 284 281 281 281 281 283 288 288 284 281 282 284 292 293 297 296 297 299 300 302 302 303 302 303 304 305 306 307 305 303 303 303 301 301 300 298 290 298 299 299 298 298 297 296 295 294 292 291 291
282 284 284 281 282 282 283 282 282 285 288 287 284 284 286 291 294 295 295 297 298 295 295 297 298 301 301 303 301 301 302 303 301 299 297 296 296 296 298 298 297 297 296 293 287 292 296 295 296 295 294 292 291 290
282 286 282 282 281 280 284 287 286 289 290 290 290 290 290 292 290 289 289 292 293 293 295 298 299 299 297 297 299 297 298 297 298 297 295 295 297 299 298 298 298 297 296 294 293 291 284 292 290 293 291 290 288 286
286 285 283 284 282 285 288 290 291 291 290 289 290 289 288 289 288 288 287 288 288 290 289 290 293 294 294 293 293 294 292 292 292 292 293 300 301 300 300 300 301 300 299 297 295 294 293 294 293 290 289 287 287 285
286 286 284 283 284 289 290 288 288 288 288 288 288 290 290 289 283 285 287 287 285 284 285 287 287 287 292 292 291 290 288 289 288 288 288 293 299 300 300 299 300 299 298 296 296 295 294 292 289 289 287 286 286 285
286 287 286 287 285 285 287 288 286 286 287 287 287 286 285 283 279 284 288 288 287 286 286 286 287 289 290 290 290 290 289 289 287 285 286 285 285 287 292 296 296 296 296 295 295 294 293 292 289 289 287 286 285 284

GFSWCAN_sfc_thetae_048.txt.gz
Theta_e
306 307 307 308 308 308 307 307 307 306 307 307 307 306 306 307 307 304 300 299 292 289 292 295 296 291 294 293 287 292 288 287 289 282 284 284 284 286 284 288 286 284 284 285 285 284 281 295 294 290 295 300 301 303
307 307 307 307 307 307 306 306 306 306 306 306 306 306 306 306 307 307 298 300 301 295 294 299 300 300 299 299 295 293 289 287 293 286 283 286 286 287 287 281 292 286 289 286 285 284 293 296 295 300 301 299 300 302
307 307 306 306 306 305 305 305 305 305 305 305 305 306 307 307 307 306 301 300 293 290 293 292 294 301 303 302 302 292 287 295 294 296 291 288 286 289 284 285 287 291 294 289 288 293 294 297 300 301 302 301 303 305
305 305 304 304 304 304 304 304 304 305 303 303 306 306 306 307 307 306 301 297 294 296 290 291 301 299 304 302 299 296 294 294 294 291 291 288 287 295 287 289 287 292 292 290 290 294 295 296 298 300 302 304 304 305
303 302 302 302 302 302 303 303 302 302 303 303 304 305 306 307 306 305 301 299 298 295 291 293 297 300 300 300 298 297 295 294 294 291 291 289 293 294 293 292 287 292 292 288 288 294 295 295 299 302 301 302 304 304
300 300 300 300 301 302 301 302 302 302 302 303 303 304 305 306 306 297 296 301 302 300 294 286 293 296 299 300 298 296 298 296 295 292 290 291 298 293 287 285 293 293 296 298 294 299 299 300 302 303 302 303 304 304
299 299 299 299 300 300 300 301 301 303 303 304 304 305 305 305 303 296 296 301 305 305 296 289 287 298 301 299 297 296 298 298 296 294 293 290 293 293 287 282 291 295 296 296 298 299 296 300 298 302 302 303 305 305
298 298 298 298 299 299 300 301 301 302 303 304 304 304 305 305 304 298 301 305 306 301 298 287 286 290 301 295 296 301 297 298 297 293 292 291 292 290 285 291 293 295 295 296 298 298 297 298 299 299 302 303 302 302
297 297 298 298 298 298 299 301 302 303 304 304 304 305 300 297 299 303 308 308 306 301 292 290 280 279 302 300 299 298 297 290 294 291 291 292 287 283 289 292 293 294 293 296 298 297 297 298 301 301 302 302 301 301
297 297 297 298 298 299 300 301 304 303 303 305 302 299 297 299 307 306 301 297 297 297 297 291 291 285 297 297 293 294 292 289 284 290 295 289 287 295 295 296 297 298 298 298 293 294 295 297 300 300 301 303 303 303
297 297 297 298 298 299 300 301 303 303 302 294 290 293 297 303 299 298 293 290 291 290 293 291 291 287 295 291 290 291 285 288 282 288 292 290 290 294 297 298 299 299 301 299 300 297 298 301 300 301 303 304 304 304
296 296 297 298 298 299 300 302 303 294 291 292 293 298 297 295 293 291 289 291 292 288 292 290 292 293 294 298 291 291 285 288 283 292 288 286 291 296 297 297 299 299 301 299 300 300 299 301 302 303 303 303 304 306
296 296 297 298 299 300 301 301 301 301 299 297 296 292 291 290 284 286 282 288 291 295 297 295 293 295 294 295 290 288 284 282 289 280 280 287 293 298 298 298 298 298 299 300 301 300 301 300 301 302 302 303 304 305
296 296 297 299 300 299 298 298 299 297 293 293 292 285 287 284 287 288 289 292 299 300 298 296 294 293 293 290 290 285 289 288 282 280 278 289 294 299 299 300 299 297 298 299 300 299 298 298 297 301 302 303 303 301
296 296 297 299 298 298 298 298 299 294 291 288 289 283 286 291 293 294 296 295 298 301 297 295 294 293 290 290 291 287 284 279 280 278 282 291 295 298 299 298 296 298 297 298 299 298 297 298 297 297 301 302 301 300
296 295 297 299 299 298 299 297 294 295 292 290 288 285 288 287 288 290 290 291 296 297 299 296 292 289 289 289 286 285 280 278 280 287 290 295 297 298 300 301 299 299 298 298 298 299 299 298 296 297 297 299 300 299
296 291 297 298 298 298 298 292 292 290 290 289 287 290 290 289 289 291 293 292 296 296 293 295 289 288 290 286 284 285 282 285 288 291 295 296 297 299 299 300 302 301 301 300 300 300 299 298 297 297 294 295 296 298
289 291 296 297 296 295 291 293 291 288 285 287 286 287 287 288 289 291 293 295 293 296 296 292 296 289 284 284 282 288 291 292 296 298 297 298 298 299 300 299 301 301 300 301 301 300 298 296 294 294 294 294 295 295
292 294 296 297 297 292 286 289 292 285 286 287 289 292 291 291 293 294 295 296 297 298 298 296 292 287 287 291 291 293 294 297 297 296 298 299 299 301 301 301 300 300 301 299 299 298 297 297 295 294 295 294 292 293
296 297 297 297 297 288 286 285 292 288 285 287 289 288 288 289 292 292 293 294 294 294 294 292 290 292 293 295 298 296 297 299 297 295 295 297 300 300 300 298 298 301 299 299 299 297 297 296 295 295 294 293 292 291
293 294 296 293 289 289 288 286 285 286 287 285 288 286 286 288 287 289 290 292 288 289 291 294 294 296 298 297 297 299 297 298 299 298 296 296 301 302 299 299 299 300 298 297 296 296 295 295 295 296 294 293 293 292
289 295 290 291 288 287 285 287 285 285 284 284 284 285 283 283 286 287 289 287 288 290 291 293 296 299 299 298 298 298 299 299 299 299 297 297 298 297 297 299 298 298 298 298 297 296 295 295 296 296 294 293 292 293
293 292 289 289 285 282 278 287 283 284 281 283 285 284 283 283 287 292 286 289 290 293 296 296 297 299 300 301 300 300 300 299 298 299 300 300 300 299 297 298 301 299 297 296 296 295 295 292 294 297 295 294 293 292
295 288 285 284 283 277 285 282 284 284 284 281 280 280 282 283 287 285 284 287 293 297 296 296 299 298 299 298 298 299 300 299 299 298 300 299 298 297 298 300 301 300 300 298 296 295 295 296 294 295 294 293 291 291
282 277 281 275 282 281 281 281 281 281 280 282 281 281 282 286 281 282 283 289 291 292 293 296 297 297 296 298 299 299 299 300 299 298 298 299 299 299 298 300 299 300 301 298 296 295 294 294 293 293 292 291 290 291
273 279 275 280 279 279 280 279 280 279 280 280 283 285 284 282 283 283 287 289 290 291 291 291 295 295 296 298 297 296 299 300 300 299 298 298 299 299 297 296 296 296 301 300 298 296 295 293 291 291 290 289 287 290
275 274 280 284 280 280 278 280 281 279 279 278 280 280 281 280 281 286 291 292 290 292 293 295 296 295 296 297 300 302 302 301 299 300 301 301 302 302 300 298 297 298 298 299 300 298 296 293 292 291 290 289 288 288
280 282 278 280 281 281 279 278 279 279 280 284 283 281 280 282 282 290 291 293 295 296 295 297 299 301 299 299 299 300 301 302 301 301 301 302 298 298 301 301 299 289 297 298 298 298 296 295 293 291 290 288 287 287
281 283 283 279 280 281 280 279 280 281 284 284 282 281 284 288 285 285 288 289 291 292 291 292 295 298 299 296 294 293 294 296 298 297 296 294 292 293 295 296 297 297 295 292 287 293 295 295 293 292 290 288 287 286
281 284 281 281 280 279 282 285 283 285 286 285 287 287 288 286 285 287 286 286 286 287 288 290 292 291 289 290 292 291 291 291 292 292 292 293 297 298 296 296 295 294 293 292 290 289 288 290 289 290 288 287 284 282
284 284 282 282 281 284 285 287 287 287 286 284 286 285 285 285 286 286 285 286 287 287 286 286 288 289 289 287 287 288 288 289 291 291 292 298 298 298 297 295 295 293 292 291 291 291 290 290 288 287 286 284 283 282
284 284 283 282 282 286 287 285 284 285 285 286 283 285 286 282 278 282 285 286 285 284 285 286 285 286 290 290 290 289 287 288 288 289 290 290 291 294 296 296 296 296 295 294 292 291 290 288 285 285 284 283 283 282
284 285 286 285 283 282 285 284 282 282 283 281 280 283 282 280 276 282 286 287 285 285 285 285 287 289 290 290 289 289 288 289 287 285 285 285 286 287 292 294 295 295 294 293 292 291 289 288 285 284 283 282 281 281